Вернуться в каталог

COSMOS 2276

GLONASS

LostНавигацияMEO
NORAD 23043·PAYLOAD·🇷🇺 Russia

Запущен Apr 11, 1994 с Baikonur Cosmodrome

Loading…

Ближайшие Пролёты (ближайшие 24 часа)

TLE

УстаревшееSource: Space-Track

Эпоха: Aug 6, 2026, 03:59 UTC

1 23043U 94021A   26218.16604872 -.00000031  00000-0  00000+0 0  9995
2 23043  63.9570 299.0221 0021210 189.0008 232.8408  2.13099426251305

Отслеживайте COSMOS 2276 в реальном времени с AllMySat

Download on the App Store